Home   Weather   Prešov   Past weeks

Flag for Slovakia Past Weather in Prešov, Slovakia — Yesterday and Last 2 Weeks

Now
86 °F

Passing clouds.


Feels Like: 87 °F
Forecast: 61 / 89 °F
Wind: 14 mph from West

Location: Kosice - Barca

Current Time: Jul 21, 2017 at 5:04:00 pm

Latest Report: Jul 21, 2017 at 4:30 pm


Visibility: N/A

Pressure: 29.86 "Hg

Humidity: 49%

Dew Point: 64 °F

Location of PrešovLocation

Past Weather in Prešov — Graph

°F

Prešov Temperature Yesterday

Maximum temperature yesterday: 90 °F (at 3:30 pm)
Minimum temperature yesterday: 61 °F (at 3:00 am)
Average temperature yesterday: 76 °F

High & Low Weather Summary for the Past Weeks

 TemperatureHumidityPressure
High90 °F (Jul 20, 3:30 pm)100% (Jul 8, 12:00 am)30.21 "Hg (Jul 8, 12:00 am)
Low48 °F (Jul 14, 3:00 am)31% (Jul 20, 3:00 pm)29.77 "Hg (Jul 13, 4:00 am)
Average68 °F67%30.01 "Hg
* Reported Jul 6 3:00 pm — Jul 21 3:30 pm, Prešov. Weather by CustomWeather, © 2017

Note: Actual official high and low records may vary slightly from our data, if they occured in-between our weather recording intervals... More about our weather records

Advertising

Prešov Weather History for the Previous 24 Hours

Scroll right to see more
 ConditionsComfort  
Time TempWeatherWind HumidityBarometerVisibility
3:30 pm
Fri, Jul 21
88 °FSunny.14 mph49%29.89 "Hg10 mi
3:00 pm88 °FPassing clouds.15 mph49%29.89 "HgN/A
2:30 pm86 °FSunny.13 mph49%29.89 "Hg10 mi
2:00 pm88 °FSunny.12 mph46%29.89 "Hg10 mi
1:30 pm86 °FPassing clouds.10 mph49%29.89 "HgN/A
1:00 pm88 °FSunny.12 mph46%29.89 "Hg10 mi
12:30 pm86 °FPassing clouds.10 mph49%29.92 "HgN/A
12:00 pm84 °FPassing clouds.8 mph48%29.92 "HgN/A
11:30 am84 °FPassing clouds.6 mph48%29.92 "HgN/A
11:00 am84 °FPassing clouds.5 mph51%29.92 "HgN/A
10:30 am82 °FSunny.1 mph51%29.92 "Hg10 mi
10:00 am81 °FSunny.2 mph54%29.92 "Hg10 mi
9:30 am79 °FSunny.2 mph58%29.92 "Hg10 mi
9:00 am77 °FSunny.1 mph57%29.92 "Hg10 mi
8:30 am75 °FSunny.2 mph61%29.92 "Hg10 mi
8:00 am73 °FSunny.6 mph65%29.92 "Hg10 mi
7:30 am72 °FSunny.7 mph69%29.92 "Hg10 mi
7:00 am70 °FSunny.7 mph73%29.89 "Hg10 mi
6:30 am70 °FSunny.7 mph69%29.89 "Hg10 mi
6:00 am68 °FSunny.6 mph73%29.89 "Hg10 mi
5:30 am66 °FSunny.3 mph78%29.89 "Hg10 mi
5:00 am66 °FSunny.5 mph78%29.89 "Hg10 mi
4:30 am66 °FClear.2 mph78%29.89 "Hg10 mi
4:00 am68 °FClear.2 mph73%29.89 "Hg10 mi
3:30 am68 °FClear.3 mph73%29.89 "Hg10 mi
3:00 am68 °FClear.3 mph73%29.89 "Hg10 mi
2:30 am68 °FClear.6 mph73%29.89 "Hg10 mi
2:00 am68 °FClear.5 mph73%29.89 "Hg10 mi
1:30 am70 °FClear.3 mph69%29.89 "Hg10 mi
1:00 am70 °FClear.2 mph69%29.89 "Hg10 mi
12:30 am72 °FClear.2 mph65%29.89 "Hg10 mi
12:00 am72 °FClear.3 mph65%29.89 "Hg10 mi
11:30 pm
Thu, Jul 20
73 °FClear.3 mph61%29.89 "Hg10 mi
11:00 pm72 °FClear.2 mph65%29.89 "Hg10 mi
10:30 pm73 °FClear.2 mph65%29.89 "Hg10 mi
10:00 pm75 °FClear.5 mph61%29.89 "Hg10 mi
9:30 pm75 °FClear.3 mph61%29.89 "Hg10 mi
9:00 pm77 °FClear.2 mph57%29.86 "Hg10 mi
8:30 pm79 °FClear.3 mph51%29.86 "Hg10 mi
8:00 pm77 °FSunny.3 mph57%29.86 "Hg10 mi
7:30 pm82 °FSunny.7 mph45%29.86 "Hg10 mi
7:00 pm84 °FSunny.9 mph43%29.86 "Hg10 mi
6:30 pm86 °FSunny.7 mph40%29.86 "Hg10 mi
6:00 pm86 °FSunny.10 mph38%29.86 "Hg10 mi
5:30 pm88 °FSunny.8 mph33%29.86 "Hg10 mi
5:00 pm88 °FPassing clouds.7 mph33%29.86 "HgN/A
Weather by CustomWeather, © 2017

See weather overviewHow to use our weather pages